Location: Bottenau
(48.5138°N, 8.0462°E)
Time: 16:41:13
(UTC+00:00)

Cosmos 2184 Rocket - Pass Details

Date: 18 April 2021
Orbit: 959 x 1002 km, 82.9° (Epoch: 06 May)

Event Time Altitude Azimuth Distance (km) Brightness Sun altitude
Rises 23:03:31 0° 353° (N) 3,729 8.2 -30.1°
Reaches altitude 10° 23:06:09 10° 358° (N) 2,771 7.3 -30.1°
Maximum altitude 23:12:23 54° 76° (ENE) 1,183 4.4 -30.2°
Enters shadow 23:12:34 54° 83° (E) 1,185 4.3 -30.2°
